Flag for U.S.A. Weather past 2 weeks in Carson City, Nevada, U.S.A.

Now
79 °F

Thunderstorms. Partly sunny.


Feels Like: 79 °F
Forecast: 62 / 95 °F
Wind: 12 mph from Southwest

Location: Reno Tahoe International Airport

Current Time: Jun 30, 2015 at 10:23:26 PM

Latest Report: Jun 30, 2015 at 8:55 PM


Visibility: 10 mi

Pressure: 29.95 "Hg

Humidity: 42%

Dew point: 54 °F

Location of Carson CityLocation

Historic Weather in Carson City — Graph

°F

Carson City temperature yesterday

Maximum temperature yesterday: 98 °F (at 3:55 PM)
Minimum temperature yesterday: 72 °F (at 3:55 AM)
Average temperature yesterday: 84 °F

Past Weeks' High & Low Weather Summary

 TemperatureHumidityPressure
High100 °F (Jun 27, 2:55 PM)49% (Jun 28, 5:55 AM)30.02 "Hg (Jun 28, 5:55 AM)
Low52 °F (Jun 22, 5:55 AM)5% (Jun 19, 1:55 PM)29.78 "Hg (Jun 24, 5:55 PM)
Average79 °F21%29.90 "Hg
* Reported Jun 15 8:55 PM — Jun 30 8:55 PM, Carson City, Weather by CustomWeather, © 2015

Note: Actual official high and low records may vary slightly from our data, if they occured in-between our weather recording intervals... More about our weather records

Advertising

Carson City weather history for previous 24 hours

 ConditionsComfort  
Time TempWeatherWind HumidityBarometerVisibility
8:55 PM
Tue, Jun 30
79 °FThunderstorms. Partly sunny.12 mph42%29.95 "Hg10 mi
7:55 PM80 °FThunderstorms. Broken clouds.12 mph44%29.90 "Hg10 mi
6:55 PM84 °FStrong thunderstorms. Partly sunny.31 mph37%29.88 "Hg10 mi
6:04 PM99 °FThunderstorms. Broken clouds.14 mph17%30.02 "Hg10 mi
5:55 PM99 °FBroken clouds.14 mph16%29.81 "Hg10 mi
4:55 PM98 °FBroken clouds.7 mph15%29.81 "Hg10 mi
3:55 PM99 °FBroken clouds.12 mph16%29.81 "Hg10 mi
2:55 PM98 °FBroken clouds.9 mph15%29.84 "Hg10 mi
1:55 PM99 °FBroken clouds.8 mph15%29.85 "Hg10 mi
12:55 PM95 °FPartly sunny.3 mph15%29.89 "Hg10 mi
11:55 AM93 °FPartly sunny.No wind16%29.92 "Hg10 mi
10:55 AM89 °FPartly sunny.5 mph22%29.93 "Hg10 mi
9:55 AM85 °FOvercast.3 mph28%29.95 "Hg10 mi
8:55 AM80 °FPartly sunny.No wind35%29.97 "Hg10 mi
7:55 AM77 °FPartly sunny.3 mph39%29.97 "Hg10 mi
6:55 AM73 °FBroken clouds.6 mph48%29.97 "Hg10 mi
5:55 AM72 °FPartly cloudy.No wind48%29.97 "Hg10 mi
4:55 AM73 °FPassing clouds.No wind48%29.95 "Hg10 mi
3:55 AM74 °FPassing clouds.3 mph46%29.94 "Hg10 mi
2:55 AM74 °FPassing clouds.6 mph46%29.95 "Hg10 mi
1:55 AM78 °FPassing clouds.No wind40%29.94 "Hg10 mi
12:55 AM78 °FPassing clouds.3 mph40%29.94 "Hg10 mi
11:55 PM
Mon, Jun 29
81 °FPassing clouds.5 mph35%29.93 "Hg10 mi
10:55 PM82 °FPartly cloudy.7 mph33%29.92 "Hg10 mi
Weather by CustomWeather, © 2015

See weather overviewHow to use our weather pages